TimeEDT,TemperatureF,Dew PointF,Humidity,Sea Level PressureIn,VisibilityMPH,Wind Direction,Wind SpeedMPH,Gust SpeedMPH,PrecipitationIn,Events,Conditions,WindDirDegrees,DateUTC
12:52 AM,64.9,62.1,90,29.89,10.0,Calm,Calm,-,N/A,,Clear,0,2013-08-03 04:52:00
1:52 AM,64.0,62.1,93,29.88,10.0,Calm,Calm,-,N/A,,Clear,0,2013-08-03 05:52:00
2:52 AM,63.0,61.0,93,29.86,10.0,Calm,Calm,-,N/A,,Clear,0,2013-08-03 06:52:00
3:52 AM,63.0,61.0,93,29.85,10.0,Calm,Calm,-,N/A,,Clear,0,2013-08-03 07:52:00
4:52 AM,62.1,60.1,93,29.86,9.0,Calm,Calm,-,N/A,,Clear,0,2013-08-03 08:52:00
5:52 AM,63.0,61.0,93,29.87,9.0,Calm,Calm,-,0.00,Rain,Light Rain,0,2013-08-03 09:52:00
6:52 AM,64.9,62.1,90,29.86,8.0,Calm,Calm,-,0.01,,Mostly Cloudy,0,2013-08-03 10:52:00
7:52 AM,66.9,60.1,79,29.87,10.0,NW,3.5,-,N/A,,Overcast,320,2013-08-03 11:52:00
8:52 AM,69.1,61.0,75,29.87,10.0,WSW,5.8,-,0.00,,Overcast,250,2013-08-03 12:52:00
9:52 AM,70.0,62.1,76,29.87,10.0,West,5.8,-,0.00,,Clear,270,2013-08-03 13:52:00
10:52 AM,70.0,63.0,78,29.88,10.0,WSW,6.9,-,0.00,Rain,Light Rain,250,2013-08-03 14:52:00
11:52 AM,70.0,63.0,78,29.88,10.0,SW,8.1,-,0.00,,Clear,220,2013-08-03 15:52:00
12:52 PM,72.0,63.0,73,29.86,10.0,SW,8.1,-,N/A,,Partly Cloudy,230,2013-08-03 16:52:00
1:52 PM,73.0,62.1,68,29.87,10.0,Variable,6.9,-,N/A,,Partly Cloudy,0,2013-08-03 17:52:00
2:18 PM,73.4,62.6,69,29.87,10.0,SW,8.1,-,N/A,,Mostly Cloudy,230,2013-08-03 18:18:00
2:42 PM,75.2,62.6,65,29.86,10.0,SW,5.8,-,N/A,,Scattered Clouds,230,2013-08-03 18:42:00
2:52 PM,75.0,62.1,64,29.85,10.0,Variable,6.9,-,N/A,,Partly Cloudy,0,2013-08-03 18:52:00
3:52 PM,75.9,64.0,67,29.83,10.0,SSW,6.9,-,N/A,,Mostly Cloudy,210,2013-08-03 19:52:00
4:52 PM,77.0,62.1,60,29.82,10.0,SW,6.9,-,N/A,,Clear,230,2013-08-03 20:52:00
5:52 PM,75.9,63.0,64,29.82,10.0,SW,6.9,-,N/A,,Partly Cloudy,230,2013-08-03 21:52:00
6:52 PM,73.9,63.0,68,29.83,10.0,West,6.9,16.1,N/A,,Clear,270,2013-08-03 22:52:00
7:28 PM,73.4,64.4,73,29.84,10.0,Calm,Calm,-,N/A,Thunderstorm,Thunderstorm,0,2013-08-03 23:28:00
7:37 PM,71.6,64.4,78,29.87,1.8,NNW,12.7,23.0,0.09,Rain,Light Rain,330,2013-08-03 23:37:00
7:48 PM,66.2,62.6,88,29.85,3.0,Calm,Calm,-,0.12,Rain,Light Rain,0,2013-08-03 23:48:00
7:52 PM,66.9,61.0,81,29.85,8.0,Calm,Calm,-,0.12,Rain,Light Rain,0,2013-08-03 23:52:00
8:18 PM,66.2,62.6,88,29.86,10.0,South,3.5,-,0.00,Thunderstorm,Overcast,180,2013-08-04 00:18:00
8:52 PM,66.9,64.0,90,29.87,9.0,South,3.5,-,0.01,Rain,Light Rain,180,2013-08-04 00:52:00
9:52 PM,64.9,63.0,93,29.87,10.0,Calm,Calm,-,0.00,,Partly Cloudy,0,2013-08-04 01:52:00
10:52 PM,63.0,62.1,97,29.88,6.0,Calm,Calm,-,N/A,,Clear,0,2013-08-04 02:52:00
11:13 PM,62.6,62.6,100,29.88,2.5,Calm,Calm,-,N/A,,Scattered Clouds,0,2013-08-04 03:13:00
11:22 PM,62.6,62.6,100,29.88,3.0,Calm,Calm,-,N/A,,Mostly Cloudy,0,2013-08-04 03:22:00
11:43 PM,62.6,62.6,100,29.88,1.8,Calm,Calm,-,N/A,,Overcast,0,2013-08-04 03:43:00
11:49 PM,62.6,62.6,100,29.88,0.2,Calm,Calm,-,N/A,Fog,Fog,0,2013-08-04 03:49:00
11:52 PM,62.1,62.1,100,29.88,0.2,Calm,Calm,-,N/A,Fog,Fog,0,2013-08-04 03:52:00